Printer-friendly version

IAU Minor Planet Center

Minor Planet Center

MPEC 2005-L37 : 2005 LV7

The following Minor Planet Electronic Circular may be linked-to from your own Web pages, but must not otherwise be redistributed electronically.


Read MPEC 2005-L36 Read MPEC 2005-L38


M.P.E.C. 2005-L37                                Issued 2005 June 7, 21:18 UT

     The Minor Planet Electronic Circulars contain information on unusual
         minor planets and routine data on comets.  They are published
   on behalf of Commission 20 of the International Astronomical Union by the
          Minor Planet Center, Smithsonian Astrophysical Observatory,
                          Cambridge, MA 02138, U.S.A.

                  Supported in part by the Brinson Foundation
             Prepared using the Tamkin Foundation Computer Network

                              MPC@CFA.HARVARD.EDU
          URL http://cfa-www.harvard.edu/iau/mpc.html  ISSN 1523-6714

                                   2005 LV7

Observations:
     K05L07V* C2005 06 05.60633 21 39 17.73 -43 45 03.4          17.8 R EL037E12
     K05L07V  C2005 06 05.61597 21 39 21.99 -43 44 40.8          17.9 R EL037E12
     K05L07V  C2005 06 05.62557 21 39 25.98 -43 44 18.1          18.4 R EL037E12
     K05L07V  C2005 06 05.63517 21 39 30.08 -43 43 55.9          18.0 R EL037E12
     K05L07V  C2005 06 05.65447 21 39 38.35 -43 43 10.8          18.4 R EL037E12
     K05L07V  C2005 06 05.65487 21 39 38.49 -43 43 09.0          18.2 R EL037E12
     K05L07V  C2005 06 05.65529 21 39 38.67 -43 43 08.2          18.4 R EL037E12
     K05L07V  C2005 06 05.65569 21 39 38.90 -43 43 07.9          18.5 R EL037E12
     K05L07V  C2005 06 05.65719 21 39 39.59 -43 43 03.7          18.0 R EL037E12
     K05L07V  C2005 06 05.66745 21 39 43.86 -43 42 39.8          17.9 R EL037E12
     K05L07V  C2005 06 05.67773 21 39 48.24 -43 42 15.5          18.0 R EL037E12
     K05L07V  C2005 06 05.68808 21 39 52.62 -43 41 51.1          18.5 R EL037E12
     K05L07V  C2005 06 05.74598 21 40 17.09 -43 39 31.0          18.8 R EL037E12
     K05L07V  C2005 06 05.74685 21 40 17.43 -43 39 28.9          18.7 R EL037E12
     K05L07V  C2005 06 05.74773 21 40 17.82 -43 39 26.7          18.3 R EL037E12
     K05L07V  C2005 06 05.74861 21 40 18.17 -43 39 24.4          18.8 R EL037E12
     K05L07V  C2005 06 05.82447 21 40 50.13 -43 36 18.0          19.0 R EL037E12
     K05L07V  C2005 06 05.82487 21 40 50.31 -43 36 16.4          18.5 R EL037E12
     K05L07V  C2005 06 05.82529 21 40 50.48 -43 36 14.9          18.5 R EL037E12
     K05L07V  C2005 06 05.82569 21 40 50.66 -43 36 13.7          17.6 R EL037E12
     K05L07V  C2005 06 07.76307 21 54 52.40 -42 10 43.3          18.2 R EL037E12
     K05L07V  C2005 06 07.76359 21 54 52.63 -42 10 41.7          18.1 R EL037E12
     K05L07V  C2005 06 07.76412 21 54 52.84 -42 10 40.1          17.9 R EL037E12
     K05L07V  C2005 06 07.76464 21 54 53.07 -42 10 38.6          18.3 R EL037E12

Observer details:
E12 Siding Spring Survey.  Observers R. H. McNaught, G. J. Garradd.  Measurers
    E. C. Beshore, C. M. Casey, E. J. Christensen, G. J. Garradd, A. D. Grauer,
    R. E. Hill, S. M. Larson, R. H. McNaught.  0.5-m Uppsala Schmidt + CCD.

Orbital elements:
2005 LV7
Epoch 2005 May 30.0 TT = JDT 2453520.5                  MPC
M 349.04063              (2000.0)            P               Q
n   0.24219356     Peri.  356.72445     +0.57799396     +0.80606067
a   2.5489481      Node   308.54334     -0.74495706     +0.45754602
e   0.5787432      Incl.    9.36238     -0.33310953     +0.37539024
P   4.07           H   19.3           G   0.15
From 24 observations 2005 June 5-7.

Ephemeris:
2005 LV7                 a,e,i = 2.55, 0.58, 9                   q = 1.0738
Date    TT    R. A. (2000) Decl.     Delta      r     Elong.  Phase     V
2005 05 30    20 51.15   -47 11.0    0.316    1.211   122.0    45.2    18.9
2005 06 09    22 03.70   -41 10.2    0.267    1.160   116.8    51.4    18.7
2005 06 19    23 09.86   -30 22.8    0.238    1.120   109.9    58.6    18.5
2005 06 29    00 03.15   -16 26.6    0.230    1.091   102.8    65.3    18.6
2005 07 09    00 43.66   -02 29.8    0.241    1.076    97.7    69.5    18.8
2005 07 19    01 14.09   +09 16.2    0.264    1.075    95.8    70.1    19.0
2005 07 29    01 36.87   +18 25.0    0.295    1.090    96.7    67.7    19.2
2005 08 08    01 53.03   +25 19.9    0.327    1.118   100.0    63.3    19.4
2005 08 18    02 02.75   +30 29.8    0.357    1.158   105.1    57.5    19.5
2005 08 28    02 05.85   +34 15.0    0.386    1.209   111.9    50.9    19.5
2005 09 07    02 02.01   +36 42.9    0.415    1.267   120.1    43.5    19.6
2005 09 17    01 51.93   +37 52.6    0.445    1.332   129.3    35.7    19.6
2005 09 27    01 37.69   +37 43.8    0.481    1.402   139.1    27.9    19.7
2005 10 07    01 22.32   +36 23.0    0.528    1.474   148.2    20.9    19.8
2005 10 17    01 09.03   +34 10.7    0.589    1.549   154.6    16.0    20.0
2005 10 27    00 59.82   +31 35.6    0.666    1.625   155.8    14.5    20.3
2005 11 06    00 55.25   +29 03.0    0.763    1.701   151.6    16.1    20.7
2005 11 16    00 55.08   +26 50.5    0.877    1.778   144.6    18.8    21.2
2005 11 26    00 58.57   +25 05.5    1.008    1.854   136.7    21.4    21.7

Timothy B. Spahr             (C) Copyright 2005 MPC           M.P.E.C. 2005-L37

Read MPEC 2005-L36 Read MPEC 2005-L38


Our Web policy. Index to the CBAT/MPC/ICQ pages.


Valid HTML 4.01!